FW2265 Weather Reports


Display with metric or nautical units.
time (UTC)temp
F
wind
direction
speed
MPH
gust
MPH
rain 1hr
in
rain 24hr
in
rain mn
in
humidity
%
barometer
mb
20190325201511 84 202 0.0 0.0 0.00 0.00 0.00 57 1019.9
20190325201012 84 200 0.0 1.0 0.00 0.00 0.00 58 1020.0
20190325200512 83 247 0.0 2.0 0.00 0.00 0.00 58 1020.1
20190325200014 83 334 0.0 1.0 0.00 0.00 0.00 58 1020.1
20190325195511 83 152 1.0 2.0 0.00 0.00 0.00 58 1020.2
20190325195012 83 202 0.0 1.0 0.00 0.00 0.00 58 1020.2
20190325194511 83 247 0.0 1.0 0.00 0.00 0.00 59 1020.4
20190325194013 83 248 0.0 1.0 0.00 0.00 0.00 60 1020.4
20190325193511 82 350 0.0 1.0 0.00 0.00 0.00 61 1020.4
20190325193013 82 235 0.0 2.0 0.00 0.00 0.00 61 1020.4
20190325192510 82 249 1.0 3.0 0.00 0.00 0.00 62 1020.5
20190325192012 82 337 1.0 2.0 0.00 0.00 0.00 63 1020.6
20190325191511 81 294 0.0 1.0 0.00 0.00 0.00 65 1020.6
20190325191013 80 252 0.0 2.0 0.00 0.00 0.00 66 1020.8
20190325190512 80 247 0.0 2.0 0.00 0.00 0.00 66 1020.9
20190325190012 80 292 0.0 1.0 0.00 0.00 0.00 66 1021.0
20190325185510 80 84 0.0 0.0 0.00 0.00 0.00 66 1021.1
20190325185012 80 112 0.0 0.0 0.00 0.00 0.00 66 1021.1
20190325184511 81 250 0.0 1.0 0.00 0.00 0.00 66 1021.2
20190325184012 80 270 0.0 1.0 0.00 0.00 0.00 67 1021.2
20190325183511 80 300 0.0 1.0 0.00 0.00 0.00 68 1021.3
20190325183014 80 342 1.0 2.0 0.00 0.00 0.00 68 1021.4
20190325182511 80 247 0.0 1.0 0.00 0.00 0.00 68 1021.3
20190325182012 79 257 0.0 2.0 0.00 0.00 0.00 68 1021.4
20190325181511 79 247 0.0 1.0 0.00 0.00 0.00 67 1021.4
20190325181012 79 270 0.0 1.0 0.00 0.00 0.00 67 1021.4
20190325180511 80 135 0.0 1.0 0.00 0.00 0.00 67 1021.6
20190325180013 80 247 1.0 2.0 0.00 0.00 0.00 67 1021.6
20190325175511 80 247 0.0 1.0 0.00 0.00 0.00 69 1021.7
20190325175013 79 238 0.0 3.0 0.00 0.00 0.00 69 1021.7
20190325174511 79 247 0.0 2.0 0.00 0.00 0.00 69 1021.8
20190325174012 79 223 0.0 1.0 0.00 0.00 0.00 70 1021.8
20190325173511 79 232 0.0 2.0 0.00 0.00 0.00 70 1021.9
20190325173015 79 292 0.0 2.0 0.00 0.00 0.00 70 1021.8
20190325172511 79 270 0.0 0.0 0.00 0.00 0.00 71 1021.8
20190325172012 79 358 0.0 2.0 0.00 0.00 0.00 71 1021.9
20190325171511 79 247 1.0 3.0 0.00 0.00 0.00 73 1021.7
20190325171012 78 292 0.0 2.0 0.00 0.00 0.00 74 1021.9
20190325170511 78 247 1.0 3.0 0.00 0.00 0.00 73 1021.9
20190325170013 78 225 1.0 2.0 0.00 0.00 0.00 73 1022.0
20190325165511 78 262 1.0 3.0 0.00 0.00 0.00 74 1022.2
20190325165012 78 335 0.0 1.0 0.00 0.00 0.00 74 1022.2
20190325164510 77 291 1.0 2.0 0.00 0.00 0.00 75 1022.2
20190325164012 77 273 1.0 2.0 0.00 0.00 0.00 76 1022.2
20190325163510 77 247 1.0 3.0 0.00 0.00 0.00 76 1022.4
20190325163013 77 270 0.0 1.0 0.00 0.00 0.00 77 1022.3
20190325162511 76 270 0.0 0.0 0.00 0.00 0.00 78 1022.3
20190325162012 76 292 0.0 0.0 0.00 0.00 0.00 80 1022.3
20190325161510 75 270 0.0 1.0 0.00 0.00 0.00 81 1022.4
20190325161012 75 247 0.0 1.0 0.00 0.00 0.00 82 1022.4
20190325160511 74 247 0.0 1.0 0.00 0.00 0.00 85 1022.4
20190325160014 74 247 1.0 2.0 0.00 0.00 0.00 88 1022.4
20190325155511 73 225 0.0 0.0 0.00 0.00 0.00 90 1022.4
20190325155012 73 225 0.0 1.0 0.00 0.00 0.00 92 1022.4
20190325154511 72 225 0.0 0.0 0.00 0.00 0.00 95 1022.4
20190325154012 71 225 0.0 0.0 0.00 0.00 0.00 96 1022.5
20190325153511 70 225 0.0 0.0 0.00 0.00 0.00 96 1022.5
20190325153012 70 225 0.0 0.0 0.00 0.00 0.00 97 1022.5
20190325152511 70 225 0.0 0.0 0.00 0.00 0.00 98 1022.6
20190325152012 70 225 0.0 0.0 0.00 0.00 0.00 98 1022.5
20190325151510 70 225 0.0 0.0 0.00 0.00 0.00 98 1022.5
20190325151013 70 225 0.0 0.0 0.00 0.00 0.00 98 1022.6
20190325150511 69 225 0.0 0.0 0.00 0.00 0.00 98 1022.4
20190325150013 69 225 0.0 0.0 0.00 0.00 0.00 98 1022.3
20190325145510 69 225 0.0 0.0 0.00 0.00 0.00 98 1022.4
20190325145013 69 225 0.0 0.0 0.00 0.00 0.00 98 1022.3
20190325144511 69 225 0.0 0.0 0.00 0.00 0.00 99 1022.2
20190325144013 69 225 0.0 0.0 0.00 0.00 0.00 99 1022.1
20190325143511 69 225 0.0 0.0 0.00 0.00 0.00 99 1022.0
20190325143014 69 225 0.0 0.0 0.00 0.00 0.00 99 1022.0
20190325142512 68 225 0.0 0.0 0.00 0.00 0.00 98 1021.8
20190325142013 68 225 0.0 0.0 0.00 0.00 0.00 99 1021.8
20190325141511 68 225 0.0 0.0 0.00 0.00 0.00 98 1021.8
20190325141013 68 225 0.0 0.0 0.00 0.00 0.00 99 1021.8
20190325140512 68 225 0.0 0.0 0.00 0.00 0.00 99 1021.7
20190325140013 68 225 0.0 0.0 0.00 0.00 0.00 99 1021.7
20190325135511 68 225 0.0 0.0 0.00 0.00 0.00 99 1021.7
20190325135012 68 225 0.0 0.0 0.00 0.00 0.00 99 1021.6
20190325134510 68 225 0.0 0.0 0.00 0.00 0.00 99 1021.6
20190325134012 68 225 0.0 0.0 0.00 0.00 0.00 99 1021.4
20190325133511 68 225 0.0 0.0 0.00 0.00 0.00 99 1021.4
20190325133013 68 225 0.0 0.0 0.00 0.00 0.00 99 1021.2
20190325132511 68 225 0.0 0.0 0.00 0.00 0.00 99 1021.2
20190325132013 68 225 0.0 0.0 0.00 0.00 0.00 99 1021.1
20190325131511 67 225 0.0 0.0 0.00 0.00 0.00 99 1021.0
20190325131012 67 225 0.0 0.0 0.00 0.00 0.00 99 1021.0
20190325130512 67 225 0.0 0.0 0.00 0.00 0.00 99 1020.9
20190325130012 67 225 0.0 0.0 0.00 0.00 0.00 99 1020.9
20190325125512 67 225 0.0 0.0 0.00 0.00 0.00 99 1020.8
20190325125012 67 225 0.0 0.0 0.00 0.00 0.00 99 1020.8
20190325124511 67 225 0.0 0.0 0.00 0.00 0.00 99 1020.8
20190325124012 67 225 0.0 0.0 0.00 0.00 0.00 99 1020.8
20190325123511 67 225 0.0 0.0 0.00 0.00 0.00 98 1020.7
20190325123014 67 225 0.0 0.0 0.00 0.00 0.00 99 1020.6
20190325122511 67 225 0.0 0.0 0.00 0.00 0.00 99 1020.6
20190325122012 67 225 0.0 0.0 0.00 0.00 0.00 99 1020.5
20190325121511 67 225 0.0 0.0 0.00 0.00 0.00 99 1020.3
20190325121012 67 225 0.0 0.0 0.00 0.00 0.00 99 1020.1
20190325120511 67 225 0.0 0.0 0.00 0.00 0.00 99 1020.1
20190325120014 67 225 0.0 0.0 0.00 0.00 0.00 99 1020.0
20190325115510 67 225 0.0 0.0 0.00 0.00 0.00 99 1020.0
20190325115012 67 225 0.0 0.0 0.00 0.00 0.00 99 1019.9
20190325114511 67 225 0.0 0.0 0.00 0.00 0.00 99 1019.9
20190325114012 67 225 0.0 0.0 0.00 0.00 0.00 99 1019.8
20190325113511 67 225 0.0 0.0 0.00 0.00 0.00 98 1019.7
20190325113013 67 225 0.0 0.0 0.00 0.00 0.00 98 1019.7
20190325112510 67 225 0.0 0.0 0.00 0.00 0.00 99 1019.8
20190325112012 67 225 0.0 0.0 0.00 0.00 0.00 99 1019.7
20190325111511 67 225 0.0 0.0 0.00 0.00 0.00 99 1019.7
20190325111012 67 225 0.0 0.0 0.00 0.00 0.00 99 1019.7
20190325110510 67 225 0.0 0.0 0.00 0.00 0.00 99 1019.6
20190325110013 67 225 0.0 0.0 0.00 0.00 0.00 99 1019.6
20190325105512 67 225 0.0 0.0 0.00 0.00 0.00 99 1019.6
20190325105012 67 225 0.0 0.0 0.00 0.00 0.00 99 1019.5
20190325104510 67 225 0.0 0.0 0.00 0.00 0.00 99 1019.5
20190325104012 67 225 0.0 0.0 0.00 0.00 0.00 99 1019.5
20190325103510 66 225 0.0 0.0 0.00 0.00 0.00 99 1019.5
20190325103013 66 225 0.0 0.0 0.00 0.00 0.00 99 1019.5
20190325102511 66 225 0.0 0.0 0.00 0.00 0.00 99 1019.5
20190325102012 66 225 0.0 0.0 0.00 0.00 0.00 99 1019.4
20190325101511 66 225 0.0 0.0 0.00 0.00 0.00 99 1019.3
20190325101011 66 225 0.0 0.0 0.00 0.00 0.00 99 1019.2
20190325100511 66 225 0.0 0.0 0.00 0.00 0.00 98 1019.2
20190325100013 66 225 0.0 0.0 0.00 0.00 0.00 98 1019.2
20190325095511 66 225 0.0 0.0 0.00 0.00 0.00 98 1019.2
20190325095012 66 225 0.0 0.0 0.00 0.00 0.00 98 1019.2
20190325094511 66 270 0.0 0.0 0.00 0.00 0.00 98 1019.1
20190325094012 66 270 0.0 0.0 0.00 0.00 0.00 98 1019.0
20190325093510 66 270 0.0 0.0 0.00 0.00 0.00 98 1019.0
20190325093013 66 270 0.0 0.0 0.00 0.00 0.00 98 1019.1
20190325092511 66 270 0.0 0.0 0.00 0.00 0.00 98 1019.1
20190325092012 66 270 0.0 0.0 0.00 0.00 0.00 98 1019.2
20190325091012 66 225 0.0 1.0 0.00 0.00 0.00 98 1019.1
20190325090510 66 225 0.0 1.0 0.00 0.00 0.00 98 1019.1
20190325090013 66 225 0.0 0.0 0.00 0.00 0.00 98 1019.2
20190325085510 66 225 0.0 2.0 0.00 0.00 0.00 98 1019.3
20190325085012 66 202 0.0 0.0 0.00 0.00 0.00 98 1019.4
20190325084510 66 202 0.0 1.0 0.00 0.00 0.00 98 1019.4
20190325084011 66 202 0.0 0.0 0.00 0.00 0.00 98 1019.6
20190325083511 66 202 0.0 0.0 0.00 0.00 0.00 98 1019.5
20190325083014 66 202 0.0 0.0 0.00 0.00 0.00 98 1019.5
20190325082510 66 202 0.0 0.0 0.00 0.00 0.00 98 1019.5
20190325082011 66 202 0.0 0.0 0.00 0.00 0.00 98 1019.6
20190325081510 66 202 0.0 0.0 0.00 0.00 0.00 97 1019.8
20190325081012 66 202 0.0 0.0 0.00 0.00 0.00 97 1019.9
20190325080510 66 202 0.0 0.0 0.00 0.00 0.00 97 1019.9
20190325080014 66 202 0.0 0.0 0.00 0.00 0.00 97 1020.0
20190325075510 66 202 0.0 0.0 0.00 0.00 0.00 97 1020.0
20190325075012 66 202 0.0 1.0 0.00 0.00 0.00 97 1019.9
20190325074510 66 202 0.0 0.0 0.00 0.00 0.00 97 1020.0
20190325074011 67 202 0.0 0.0 0.00 0.00 0.00 97 1020.1
20190325073511 67 202 0.0 0.0 0.00 0.00 0.00 97 1020.2
20190325073012 67 202 0.0 0.0 0.00 0.00 0.00 97 1020.3
20190325072510 67 202 0.0 0.0 0.00 0.00 0.00 97 1020.4
20190325072012 67 202 0.0 0.0 0.00 0.00 0.00 97 1020.3
20190325071510 67 202 0.0 0.0 0.00 0.00 0.00 97 1020.4
20190325071012 67 202 0.0 0.0 0.00 0.00 0.00 97 1020.5
20190325070512 67 202 0.0 0.0 0.00 0.00 0.00 97 1020.5
20190325070011 67 202 0.0 0.0 0.00 0.00 0.00 97 1020.6
20190325065510 67 202 0.0 0.0 0.00 0.00 0.00 97 1020.6
20190325065011 67 135 0.0 0.0 0.00 0.00 0.00 97 1020.6
20190325064511 67 202 0.0 0.0 0.00 0.00 0.00 96 1020.6
20190325064011 67 202 0.0 0.0 0.00 0.00 0.00 96 1020.6
20190325063511 67 225 0.0 0.0 0.00 0.00 0.00 96 1020.6
20190325063013 67 225 0.0 0.0 0.00 0.00 0.00 96 1020.6
20190325062011 67 225 0.0 0.0 0.00 0.00 0.00 96 1020.8
20190325061510 67 225 0.0 0.0 0.00 0.00 0.00 96 1020.8
20190325061012 67 225 0.0 0.0 0.00 0.00 0.00 96 1020.7
20190325060511 67 225 0.0 0.0 0.00 0.00 0.00 96 1020.7
20190325060012 67 225 0.0 0.0 0.00 0.00 0.00 96 1020.7
20190325055510 67 225 0.0 0.0 0.00 0.00 0.00 95 1020.7
20190325055011 67 225 0.0 0.0 0.00 0.00 0.00 95 1020.8
20190325054511 67 225 0.0 0.0 0.00 0.00 0.00 95 1020.8
20190325054012 67 225 0.0 1.0 0.00 0.00 0.00 94 1020.7
20190325053510 67 202 0.0 0.0 0.00 0.00 0.00 95 1020.8
20190325053013 67 202 0.0 0.0 0.00 0.00 0.00 95 1020.8
20190325052510 67 202 0.0 0.0 0.00 0.00 0.00 95 1020.9
20190325052011 67 202 0.0 0.0 0.00 0.00 0.00 94 1020.9
20190325051510 67 202 0.0 0.0 0.00 0.00 0.00 94 1020.9
20190325051012 67 202 0.0 0.0 0.00 0.00 0.00 94 1020.8
20190325050511 67 202 0.0 0.0 0.00 0.00 0.00 94 1020.8
20190325045510 67 202 0.0 0.0 0.00 0.00 0.00 94 1020.7
20190325045012 67 180 0.0 0.0 0.00 0.00 0.00 94 1020.7
20190325044510 67 133 0.0 0.0 0.00 0.00 0.00 94 1020.8
20190325044012 67 112 0.0 0.0 0.00 0.00 0.00 94 1020.7
20190325043510 68 112 0.0 0.0 0.00 0.00 0.00 93 1020.7
20190325043013 68 202 0.0 0.0 0.00 0.00 0.00 92 1020.8
20190325042510 68 214 0.0 1.0 0.00 0.00 0.00 93 1020.7
20190325042012 68 157 0.0 1.0 0.00 0.00 0.00 93 1020.7
20190325041511 68 202 0.0 0.0 0.00 0.00 0.00 93 1020.7
20190325041012 68 202 0.0 0.0 0.00 0.00 0.00 92 1020.8
20190325040516 68 202 0.0 1.0 0.00 0.00 0.00 93 1020.7
20190325040009 68 186 0.0 0.0 0.00 0.00 0.00 93 1020.7
20190325035511 68 202 0.0 1.0 0.00 0.00 0.00 93 1020.5
20190325035013 68 202 0.0 0.0 0.00 0.00 0.00 92 1020.6
20190325034515 68 135 0.0 0.0 0.00 0.00 0.00 93 1020.5
20190325034011 68 225 0.0 1.0 0.00 0.00 0.00 93 1020.5
20190325033511 68 202 0.0 1.0 0.00 0.00 0.00 93 1020.4
20190325033012 68 180 0.0 1.0 0.00 0.00 0.00 92 1020.4
20190325032510 68 225 0.0 1.0 0.00 0.00 0.00 92 1020.5
20190325032013 68 202 0.0 0.0 0.00 0.00 0.00 93 1020.5
20190325031511 68 208 0.0 0.0 0.00 0.00 0.00 92 1020.5
20190325031014 68 225 0.0 0.0 0.00 0.00 0.00 92 1020.4
20190325030512 68 202 0.0 0.0 0.00 0.00 0.00 92 1020.4
20190325030016 68 202 0.0 0.0 0.00 0.00 0.00 92 1020.3
20190325025511 68 180 0.0 1.0 0.00 0.00 0.00 92 1020.2
20190325025013 68 202 0.0 0.0 0.00 0.00 0.00 91 1020.0
20190325024511 68 135 0.0 1.0 0.00 0.00 0.00 91 1019.9
20190325024011 68 225 0.0 1.0 0.00 0.00 0.00 91 1019.9
20190325023511 68 225 0.0 1.0 0.00 0.00 0.00 91 1019.9
20190325023012 68 202 0.0 0.0 0.00 0.00 0.00 91 1019.8
20190325022511 68 225 0.0 1.0 0.00 0.00 0.00 90 1019.8
20190325022013 68 128 0.0 0.0 0.00 0.00 0.00 90 1019.7
20190325021511 69 225 0.0 0.0 0.00 0.00 0.00 90 1019.6
20190325021012 69 225 0.0 0.0 0.00 0.00 0.00 89 1019.7
20190325020510 69 225 0.0 1.0 0.00 0.00 0.00 89 1019.6
20190325020013 69 90 0.0 0.0 0.00 0.00 0.00 89 1019.6
20190325015511 69 91 0.0 1.0 0.00 0.00 0.00 87 1019.5
20190325015013 69 225 0.0 1.0 0.00 0.00 0.00 88 1019.4
20190325014511 69 112 0.0 0.0 0.00 0.00 0.00 88 1019.4
20190325014012 69 202 0.0 0.0 0.00 0.00 0.00 88 1019.4
20190325013511 69 202 0.0 1.0 0.00 0.00 0.00 87 1019.3
20190325013014 70 202 0.0 0.0 0.00 0.00 0.00 87 1019.3
20190325012511 70 215 0.0 2.0 0.00 0.00 0.00 87 1019.2
20190325012012 70 197 0.0 1.0 0.00 0.00 0.00 86 1019.2
20190325011511 70 178 0.0 2.0 0.00 0.00 0.00 86 1019.2
20190325011012 70 225 0.0 1.0 0.00 0.00 0.00 86 1019.2
20190325010511 70 247 0.0 2.0 0.00 0.00 0.00 85 1019.3
20190325010014 70 112 0.0 1.0 0.00 0.00 0.00 85 1019.3
20190325005510 71 225 0.0 0.0 0.00 0.00 0.00 85 1019.5
20190325005012 71 238 0.0 1.0 0.00 0.00 0.00 84 1019.5
20190325004511 71 226 0.0 2.0 0.00 0.00 0.00 84 1019.5
20190325004011 71 135 0.0 1.0 0.00 0.00 0.00 84 1019.5
20190325003511 71 257 0.0 1.0 0.00 0.00 0.00 83 1019.5
20190325003014 71 191 0.0 1.0 0.00 0.00 0.00 83 1019.5
20190325002511 71 168 0.0 2.0 0.00 0.00 0.00 83 1019.5
20190325002012 71 117 0.0 1.0 0.00 0.00 0.00 82 1019.5
20190325001511 72 202 0.0 0.0 0.00 0.00 0.00 82 1019.4
20190325001013 72 204 0.0 1.0 0.00 0.00 0.00 82 1019.5
20190325000514 72 197 0.0 2.0 0.00 0.00 0.00 82 1019.5
20190325000013 72 225 0.0 3.0 0.00 0.00 0.00 82 1019.5
20190324235510 72 187 0.0 2.0 0.00 0.00 0.00 81 1019.4
20190324235012 72 217 0.0 2.0 0.00 0.00 0.00 81 1019.5
20190324234511 72 69 0.0 2.0 0.00 0.00 0.00 81 1019.5
20190324234011 72 148 0.0 2.0 0.00 0.00 0.00 81 1019.5
20190324233511 73 157 0.0 1.0 0.00 0.00 0.00 80 1019.5
20190324233013 73 225 0.0 2.0 0.00 0.00 0.00 80 1019.6
20190324232510 73 226 0.0 2.0 0.00 0.00 0.00 80 1019.6
20190324232012 73 153 0.0 3.0 0.00 0.00 0.00 80 1019.6
20190324231511 73 212 0.0 1.0 0.00 0.00 0.00 80 1019.6
20190324231012 73 157 1.0 3.0 0.00 0.00 0.00 80 1019.6
20190324230511 73 201 0.0 2.0 0.00 0.00 0.00 80 1019.5
20190324230013 73 191 0.0 3.0 0.00 0.00 0.00 79 1019.6
20190324225511 73 213 1.0 4.0 0.00 0.00 0.00 79 1019.6
20190324225011 73 219 0.0 2.0 0.00 0.00 0.00 79 1019.6
20190324224511 73 202 0.0 1.0 0.00 0.00 0.00 79 1019.5
20190324224012 74 206 0.0 2.0 0.00 0.00 0.00 79 1019.7
20190324223511 74 202 0.0 1.0 0.00 0.00 0.00 79 1019.6
20190324223012 74 238 0.0 2.0 0.00 0.00 0.00 78 1019.6
20190324222510 74 206 0.0 2.0 0.00 0.00 0.00 78 1019.6
20190324222012 74 210 0.0 2.0 0.00 0.00 0.00 77 1019.7
20190324221510 74 181 0.0 2.0 0.00 0.00 0.00 78 1019.7
20190324221012 74 199 0.0 2.0 0.00 0.00 0.00 78 1019.7
20190324220511 74 160 0.0 2.0 0.00 0.00 0.00 77 1019.8
20190324220012 74 187 0.0 2.0 0.00 0.00 0.00 77 1019.9
20190324215511 74 171 0.0 1.0 0.00 0.00 0.00 77 1019.9
20190324215012 75 202 0.0 2.0 0.00 0.00 0.00 76 1019.9
20190324214511 75 130 0.0 1.0 0.00 0.00 0.00 75 1019.9
20190324214012 75 159 1.0 3.0 0.00 0.00 0.00 75 1019.9
20190324213511 75 121 0.0 1.0 0.00 0.00 0.00 75 1019.9
20190324213012 76 244 0.0 0.0 0.00 0.00 0.00 74 1020.0
20190324212510 76 157 0.0 0.0 0.00 0.00 0.00 75 1020.0
20190324212012 76 127 0.0 2.0 0.00 0.00 0.00 75 1020.0
20190324211510 76 161 0.0 1.0 0.00 0.00 0.00 75 1020.0
20190324211013 76 180 0.0 1.0 0.00 0.00 0.00 74 1020.0
20190324210511 76 331 0.0 0.0 0.00 0.00 0.00 74 1020.0
20190324210013 76 225 0.0 2.0 0.00 0.00 0.00 74 1020.1
20190324205511 76 141 0.0 2.0 0.00 0.00 0.00 74 1020.0
20190324205012 76 235 0.0 2.0 0.00 0.00 0.00 74 1020.1
20190324204510 76 270 0.0 1.0 0.00 0.00 0.00 73 1020.1
20190324204012 76 181 0.0 3.0 0.00 0.00 0.00 74 1020.2
20190324203510 76 215 1.0 3.0 0.00 0.00 0.00 74 1020.2
20190324203014 76 225 0.0 2.0 0.00 0.00 0.00 74 1020.1
20190324202510 76 231 0.0 3.0 0.00 0.00 0.00 74 1020.2
20190324202013 76 159 0.0 2.0 0.00 0.00 0.00 73 1020.1